Theta_e
329 331 331 330 331 330 330 333 334 334 334 333 332 331 332 330 331 332 331 331 331 327
330 330 330 330 333 333 334 334 333 334 332 332 331 331 332 330 331 328 327 333 330 326
332 332 330 332 331 332 334 333 333 333 332 332 331 331 332 330 332 330 330 331 332 327
332 331 330 331 332 332 334 333 332 332 332 332 331 331 331 331 330 330 330 331 330 325
331 329 330 331 332 332 332 332 333 332 331 330 330 330 329 328 327 327 326 325 328 323
330 329 330 330 331 333 333 332 331 332 330 330 329 328 328 328 327 325 326 329 328 324
331 330 330 331 332 332 332 331 331 332 331 330 327 326 326 325 324 324 325 328 327 328
331 331 330 331 331 333 332 331 329 329 327 330 325 324 324 324 324 325 324 326 326 327
329 329 331 331 331 331 332 329 328 327 327 328 324 306 310 321 324 325 325 325 325 327
329 329 329 329 328 330 331 331 327 326 329 325 322 304 306 312 327 326 325 324 324 323
328 329 330 327 328 328 330 330 329 323 323 323 317 302 304 310 328 326 325 324 324 322
328 329 330 326 327 327 328 329 329 327 319 320 313 301 303 316 326 325 324 323 323 323
328 329 330 329 327 327 329 327 328 327 325 314 315 299 304 317 325 325 323 323 321 309
328 330 331 330 327 327 327 326 326 327 327 325 322 315 300 306 326 324 324 323 324 325
Wind_Speed
4 1 0 1 0 1 1 1 3 5 5 6 7 8 7 5 4 4 4 6 6 6
3 1 1 2 2 0 1 1 4 5 6 6 7 7 8 5 6 4 4 5 7 7
3 2 3 2 3 3 2 4 5 6 6 6 7 7 6 5 6 7 5 4 7 7
3 3 4 4 3 4 3 4 5 7 7 8 8 7 6 6 7 7 7 6 7 6
4 4 5 4 4 4 5 5 5 6 6 7 9 8 7 8 8 7 6 6 5 7
5 4 6 4 4 4 6 5 5 6 8 9 9 9 8 8 8 7 5 6 7 5
5 5 6 5 5 4 5 6 6 6 7 8 8 8 8 8 9 8 6 6 7 7
5 6 7 6 6 6 6 6 6 7 6 8 8 7 9 8 9 9 8 7 7 6
6 7 6 6 5 5 6 6 7 6 7 7 5 8 10 10 8 9 9 9 7 8
7 7 6 6 5 6 6 7 6 4 6 8 8 9 9 10 8 8 8 9 8 7
9 7 7 8 7 7 6 7 6 4 5 9 5 8 9 9 10 8 9 9 8 8
10 9 8 9 7 5 7 6 6 6 5 8 5 7 9 9 10 9 9 8 6 8
11 9 9 9 9 6 6 7 6 6 10 10 7 7 9 8 7 11 7 6 5 9
11 10 9 9 8 7 7 8 7 8 8 8 9 6 7 8 8 9 8 7 7 5
Wind_Direction
161 171 294 354 120 142 219 152 166 171 168 173 178 172 171 168 159 157 148 161 151 146
168 176 72 105 108 90 34 116 144 148 155 158 170 164 158 161 144 131 138 115 121 143
159 155 109 107 81 77 76 109 136 148 150 141 143 145 156 144 137 143 140 141 148 144
147 129 123 114 90 83 108 114 139 160 155 143 137 133 132 132 133 138 135 144 148 130
138 128 119 125 96 89 103 100 126 150 148 141 133 130 135 130 136 139 144 133 145 136
142 127 112 115 103 96 115 107 120 139 143 141 130 134 138 138 136 138 147 142 126 148
145 123 111 111 107 88 106 117 121 126 130 130 130 132 134 137 133 134 138 132 136 158
154 134 116 112 101 95 93 104 114 123 122 134 130 135 135 136 134 131 130 127 136 150
171 154 137 124 119 103 100 113 125 126 135 137 117 125 124 136 137 139 136 126 123 124
172 164 148 123 128 119 112 119 100 96 124 116 122 127 126 129 125 122 118 116 116 107
175 168 151 133 129 119 125 127 122 112 105 124 129 138 125 124 124 116 113 104 100 98
177 172 163 143 137 125 133 133 117 115 117 124 131 132 132 139 126 119 113 104 96 102
182 178 176 151 143 140 136 126 123 108 117 115 134 159 136 129 130 122 116 105 103 81
180 183 174 156 146 141 140 126 123 125 123 134 143 161 158 151 144 140 145 142 147 126